| time (UTC) | temp F | wind direction | speed MPH | gust MPH | rain 1hr in | rain 24hr in | rain mn in | humidity % | barometer mb |
| 20260502203006 | 77 | 234 | 0.0 | 10.0 | 0.00 | 0.00 | 0.00 | 43 | 1022.3 |
| 20260502202502 | 79 | 247 | 1.0 | 5.0 | 0.00 | 0.00 | 0.00 | 41 | 1022.7 |
| 20260502202001 | 79 | 172 | 2.0 | 4.0 | 0.00 | 0.00 | 0.00 | 40 | 1022.5 |
| 20260502201456 | 78 | 129 | 1.0 | 7.0 | 0.00 | 0.00 | 0.00 | 45 | 1022.9 |
| 20260502200953 | 77 | 353 | 1.0 | 5.0 | 0.00 | 0.00 | 0.00 | 42 | 1022.8 |
| 20260502200449 | 77 | 327 | 3.0 | 4.0 | 0.00 | 0.00 | 0.00 | 41 | 1022.8 |
| 20260502195947 | 77 | 332 | 5.0 | 8.0 | 0.00 | 0.00 | 0.00 | 42 | 1022.8 |
| 20260502195444 | 78 | 1 | 0.0 | 7.0 | 0.00 | 0.00 | 0.00 | 47 | 1022.8 |
| 20260502194940 | 77 | 358 | 3.0 | 5.0 | 0.00 | 0.00 | 0.00 | 44 | 1022.7 |
| 20260502194437 | 77 | 97 | 1.0 | 5.0 | 0.00 | 0.00 | 0.00 | 46 | 1023.0 |
| 20260502193932 | 77 | 31 | 2.0 | 12.0 | 0.00 | 0.00 | 0.00 | 43 | 1023.4 |
| 20260502193430 | 77 | 191 | 0.0 | 5.0 | 0.00 | 0.00 | 0.00 | 45 | 1023.4 |
| 20260502192926 | 76 | 89 | 0.0 | 9.0 | 0.00 | 0.00 | 0.00 | 44 | 1023.4 |
| 20260502192423 | 77 | 63 | 0.0 | 5.0 | 0.00 | 0.00 | 0.00 | 43 | 1023.6 |
| 20260502191920 | 77 | 278 | 3.0 | 4.0 | 0.00 | 0.00 | 0.00 | 43 | 1023.5 |
| 20260502191418 | 77 | 80 | 0.0 | 4.0 | 0.00 | 0.00 | 0.00 | 49 | 1023.5 |
| 20260502190915 | 77 | 51 | 0.0 | 5.0 | 0.00 | 0.00 | 0.00 | 51 | 1023.6 |
| 20260502190412 | 76 | 311 | 0.0 | 9.0 | 0.00 | 0.00 | 0.00 | 52 | 1023.7 |
| 20260502185908 | 77 | 64 | 3.0 | 5.0 | 0.00 | 0.00 | 0.00 | 49 | 1023.6 |
| 20260502185403 | 75 | 259 | 2.0 | 5.0 | 0.00 | 0.00 | 0.00 | 48 | 1023.7 |
| 20260502184901 | 75 | 49 | 1.0 | 8.0 | 0.00 | 0.00 | 0.00 | 49 | 1023.6 |
| 20260502184356 | 75 | 301 | 4.0 | 7.0 | 0.00 | 0.00 | 0.00 | 51 | 1023.8 |
| 20260502183853 | 75 | 305 | 1.0 | 8.0 | 0.00 | 0.00 | 0.00 | 53 | 1023.9 |
| 20260502183349 | 75 | 249 | 4.0 | 7.0 | 0.00 | 0.00 | 0.00 | 49 | 1024.1 |
| 20260502182844 | 75 | 349 | 1.0 | 5.0 | 0.00 | 0.00 | 0.00 | 51 | 1023.8 |
| 20260502182340 | 75 | 74 | 3.0 | 6.0 | 0.00 | 0.00 | 0.00 | 51 | 1024.0 |
| 20260502181837 | 75 | 185 | 1.0 | 9.0 | 0.00 | 0.00 | 0.00 | 51 | 1024.2 |
| 20260502181336 | 74 | 157 | 1.0 | 6.0 | 0.00 | 0.00 | 0.00 | 52 | 1024.1 |
| 20260502180833 | 74 | 189 | 2.0 | 11.0 | 0.00 | 0.00 | 0.00 | 50 | 1024.1 |
| 20260502180330 | 74 | 244 | 1.0 | 7.0 | 0.00 | 0.00 | 0.00 | 51 | 1024.3 |
| 20260502170249 | 73 | 274 | 1.0 | 5.0 | 0.00 | 0.00 | 0.00 | 59 | 1024.5 |
| 20260502164237 | 72 | 74 | 2.0 | 9.0 | 0.00 | 0.00 | 0.00 | 59 | 1024.2 |
| 20260502163732 | 71 | 255 | 3.0 | 7.0 | 0.00 | 0.00 | 0.00 | 62 | 1024.4 |
| 20260502163229 | 71 | 28 | 4.0 | 8.0 | 0.00 | 0.00 | 0.00 | 59 | 1024.3 |
| 20260502162726 | 71 | 229 | 3.0 | 6.0 | 0.00 | 0.00 | 0.00 | 62 | 1024.3 |
| 20260502162222 | 70 | 21 | 1.0 | 6.0 | 0.00 | 0.00 | 0.00 | 66 | 1024.3 |
| 20260502161720 | 71 | 104 | 0.0 | 4.0 | 0.00 | 0.00 | 0.00 | 66 | 1024.2 |
| 20260502161216 | 71 | 38 | 1.0 | 5.0 | 0.00 | 0.00 | 0.00 | 68 | 1024.2 |
| 20260502160715 | 70 | 339 | 2.0 | 6.0 | 0.00 | 0.00 | 0.00 | 67 | 1024.2 |
| 20260502160213 | 69 | 170 | 2.0 | 8.0 | 0.00 | 0.00 | 0.00 | 70 | 1024.3 |
| 20260502152132 | 68 | 106 | 0.0 | 4.0 | 0.00 | 0.00 | 0.00 | 76 | 1024.3 |
| 20260502151630 | 67 | 343 | 4.0 | 9.0 | 0.00 | 0.00 | 0.00 | 75 | 1024.2 |
| 20260502151127 | 67 | 40 | 2.0 | 6.0 | 0.00 | 0.00 | 0.00 | 75 | 1024.2 |
| 20260502150624 | 66 | 264 | 3.0 | 7.0 | 0.00 | 0.00 | 0.00 | 76 | 1024.2 |
| 20260502150120 | 66 | 155 | 0.0 | 9.0 | 0.00 | 0.00 | 0.00 | 76 | 1024.4 |
| 20260502130509 | 59 | 118 | 2.0 | 7.0 | 0.00 | 0.00 | 0.00 | 91 | 1023.0 |
| 20260502123452 | 55 | 46 | 0.0 | 5.0 | 0.00 | 0.00 | 0.00 | 99 | 1022.4 |
| 20260502122949 | 54 | 342 | 2.0 | 5.0 | 0.00 | 0.00 | 0.00 | 99 | 1022.5 |
| 20260502122444 | 54 | 92 | 1.0 | 7.0 | 0.00 | 0.00 | 0.00 | 99 | 1022.5 |
| 20260502121943 | 54 | 21 | 2.0 | 5.0 | 0.00 | 0.00 | 0.00 | 99 | 1022.2 |
| 20260502121440 | 53 | 184 | 0.0 | 4.0 | 0.00 | 0.00 | 0.00 | 99 | 1022.2 |
| 20260502120938 | 53 | 8 | 1.0 | 4.0 | 0.00 | 0.00 | 0.00 | 99 | 1022.3 |
| 20260502120433 | 53 | 356 | 2.0 | 4.0 | 0.00 | 0.00 | 0.00 | 99 | 1022.0 |
| 20260502115931 | 53 | 93 | 1.0 | 3.0 | 0.00 | 0.00 | 0.00 | 99 | 1022.2 |
| 20260502115428 | 53 | 89 | 0.0 | 5.0 | 0.00 | 0.00 | 0.00 | 99 | 1021.8 |
| 20260502114924 | 53 | 115 | 0.0 | 3.0 | 0.00 | 0.00 | 0.00 | 99 | 1021.9 |
| 20260502114421 | 53 | 125 | 1.0 | 4.0 | 0.00 | 0.00 | 0.00 | 99 | 1021.7 |
| 20260502113918 | 53 | 34 | 1.0 | 3.0 | 0.00 | 0.00 | 0.00 | 99 | 1021.7 |
| 20260502113416 | 53 | 187 | 1.0 | 3.0 | 0.00 | 0.00 | 0.00 | 99 | 1021.7 |
| 20260502112914 | 52 | 30 | 0.0 | 5.0 | 0.00 | 0.00 | 0.00 | 99 | 1021.8 |
| 20260502112411 | 52 | 9 | 0.0 | 7.0 | 0.00 | 0.00 | 0.00 | 99 | 1021.8 |
| 20260502111909 | 52 | 286 | 1.0 | 5.0 | 0.00 | 0.00 | 0.00 | 99 | 1021.8 |
| 20260502111405 | 52 | 59 | 0.0 | 2.0 | 0.00 | 0.00 | 0.00 | 99 | 1021.6 |
| 20260502110903 | 52 | 113 | 3.0 | 3.0 | 0.00 | 0.00 | 0.00 | 99 | 1021.8 |
| 20260502110401 | 52 | 338 | 0.0 | 2.0 | 0.00 | 0.00 | 0.00 | 99 | 1021.7 |
| 20260502105858 | 52 | 146 | 2.0 | 3.0 | 0.00 | 0.00 | 0.00 | 99 | 1021.5 |
| 20260502105355 | 52 | 60 | 0.0 | 3.0 | 0.00 | 0.00 | 0.00 | 99 | 1021.5 |
| 20260502104853 | 52 | 55 | 0.0 | 4.0 | 0.00 | 0.00 | 0.00 | 99 | 1021.2 |
| 20260502104350 | 52 | 77 | 0.0 | 3.0 | 0.00 | 0.00 | 0.00 | 99 | 1021.2 |
| 20260502103847 | 52 | 147 | 0.0 | 4.0 | 0.00 | 0.00 | 0.00 | 99 | 1021.0 |
| 20260502103344 | 52 | 104 | 0.0 | 4.0 | 0.00 | 0.00 | 0.00 | 99 | 1020.8 |
| 20260502102841 | 52 | 91 | 1.0 | 3.0 | 0.00 | 0.00 | 0.00 | 99 | 1020.9 |
| 20260502102338 | 52 | 61 | 2.0 | 3.0 | 0.00 | 0.00 | 0.00 | 99 | 1020.8 |
| 20260502101835 | 52 | 130 | 0.0 | 4.0 | 0.00 | 0.00 | 0.00 | 99 | 1020.8 |
| 20260502101333 | 52 | 70 | 0.0 | 3.0 | 0.00 | 0.00 | 0.00 | 99 | 1020.6 |
| 20260502100832 | 52 | 124 | 1.0 | 3.0 | 0.00 | 0.00 | 0.00 | 99 | 1020.6 |
| 20260502100331 | 52 | 84 | 1.0 | 3.0 | 0.00 | 0.00 | 0.00 | 99 | 1020.4 |
| 20260502091304 | 52 | 192 | 1.0 | 4.0 | 0.00 | 0.00 | 0.00 | 99 | 1019.7 |
| 20260502090802 | 52 | 156 | 0.0 | 6.0 | 0.00 | 0.00 | 0.00 | 99 | 1019.9 |
| 20260502090258 | 52 | 162 | 2.0 | 3.0 | 0.00 | 0.00 | 0.00 | 99 | 1019.7 |
| 20260502071158 | 55 | 283 | 0.0 | 4.0 | 0.00 | 0.00 | 0.00 | 99 | 1019.8 |
| 20260502070657 | 55 | 103 | 0.0 | 5.0 | 0.00 | 0.00 | 0.00 | 99 | 1019.7 |
| 20260502070155 | 55 | 107 | 0.0 | 5.0 | 0.00 | 0.00 | 0.00 | 99 | 1019.6 |
| 20260502065653 | 55 | 134 | 3.0 | 6.0 | 0.00 | 0.00 | 0.00 | 99 | 1019.6 |
| 20260502065150 | 55 | 48 | 1.0 | 5.0 | 0.00 | 0.00 | 0.00 | 99 | 1019.5 |
| 20260502064649 | 55 | 39 | 2.0 | 3.0 | 0.00 | 0.00 | 0.00 | 99 | 1019.4 |
| 20260502064145 | 55 | 162 | 2.0 | 6.0 | 0.00 | 0.00 | 0.00 | 99 | 1019.3 |
| 20260502063643 | 55 | 56 | 0.0 | 5.0 | 0.00 | 0.00 | 0.00 | 99 | 1019.2 |
| 20260502063141 | 55 | 83 | 2.0 | 6.0 | 0.00 | 0.00 | 0.00 | 99 | 1019.3 |
| 20260502062637 | 56 | 85 | 0.0 | 4.0 | 0.00 | 0.00 | 0.00 | 99 | 1019.3 |
| 20260502062135 | 56 | 86 | 1.0 | 5.0 | 0.00 | 0.00 | 0.00 | 99 | 1019.3 |
| 20260502061633 | 56 | 130 | 0.0 | 4.0 | 0.00 | 0.00 | 0.00 | 99 | 1019.4 |
| 20260502061131 | 55 | 84 | 0.0 | 3.0 | 0.00 | 0.00 | 0.00 | 99 | 1019.4 |
| 20260502060630 | 55 | 119 | 2.0 | 4.0 | 0.00 | 0.00 | 0.00 | 99 | 1019.1 |
| 20260502060127 | 55 | 104 | 0.0 | 6.0 | 0.00 | 0.00 | 0.00 | 99 | 1019.1 |
| 20260502055625 | 55 | 141 | 2.0 | 5.0 | 0.00 | 0.00 | 0.00 | 99 | 1019.4 |
| 20260502055123 | 55 | 210 | 0.0 | 3.0 | 0.00 | 0.00 | 0.00 | 99 | 1019.3 |
| 20260502054622 | 55 | 41 | 3.0 | 6.0 | 0.00 | 0.00 | 0.00 | 99 | 1019.4 |
| 20260502054119 | 55 | 52 | 0.0 | 4.0 | 0.00 | 0.00 | 0.00 | 99 | 1019.5 |
| 20260502053616 | 55 | 102 | 2.0 | 6.0 | 0.00 | 0.00 | 0.00 | 99 | 1019.7 |
| 20260502053113 | 55 | 92 | 0.0 | 3.0 | 0.00 | 0.00 | 0.00 | 99 | 1019.8 |
| 20260502052612 | 55 | 76 | 0.0 | 4.0 | 0.00 | 0.00 | 0.00 | 99 | 1019.7 |
| 20260502052110 | 55 | 88 | 2.0 | 3.0 | 0.00 | 0.00 | 0.00 | 99 | 1019.6 |
| 20260502051607 | 55 | 154 | 2.0 | 6.0 | 0.00 | 0.00 | 0.00 | 99 | 1019.4 |
| 20260502051105 | 55 | 181 | 2.0 | 3.0 | 0.00 | 0.00 | 0.00 | 99 | 1019.4 |
| 20260502050601 | 55 | 280 | 0.0 | 5.0 | 0.00 | 0.00 | 0.00 | 99 | 1019.6 |
| 20260502050058 | 55 | 185 | 1.0 | 3.0 | 0.00 | 3.42 | 3.42 | 99 | 1019.7 |
| 20260502045554 | 55 | 322 | 2.0 | 5.0 | 0.00 | 3.42 | 3.42 | 99 | 1019.6 |
| 20260502045052 | 55 | 40 | 0.0 | 7.0 | 0.00 | 3.42 | 3.42 | 99 | 1019.7 |
| 20260502044548 | 55 | 257 | 2.0 | 5.0 | 0.00 | 3.42 | 3.42 | 99 | 1019.6 |
| 20260502044044 | 55 | 94 | 3.0 | 4.0 | 0.00 | 3.42 | 3.42 | 99 | 1019.7 |
| 20260502043542 | 55 | 175 | 0.0 | 4.0 | 0.00 | 3.42 | 3.42 | 99 | 1019.6 |
| 20260502043038 | 55 | 118 | 1.0 | 5.0 | 0.00 | 3.42 | 3.42 | 99 | 1019.4 |
| 20260502042533 | 55 | 39 | 4.0 | 7.0 | 0.00 | 3.42 | 3.42 | 99 | 1019.6 |
| 20260502042031 | 55 | 347 | 0.0 | 4.0 | 0.00 | 3.42 | 3.42 | 99 | 1019.7 |
| 20260502041529 | 55 | 26 | 0.0 | 15.0 | 0.02 | 3.42 | 3.42 | 99 | 1019.3 |
| 20260502041026 | 55 | 7 | 2.0 | 5.0 | 0.02 | 3.42 | 3.42 | 99 | 1019.6 |
| 20260502040522 | 55 | 102 | 0.0 | 7.0 | 0.07 | 3.42 | 3.42 | 99 | 1019.5 |
| 20260502040020 | 55 | 24 | 2.0 | 6.0 | 0.09 | 3.42 | 3.42 | 99 | 1019.2 |
| 20260502035515 | 55 | 289 | 1.0 | 11.0 | 0.00 | 3.40 | 3.40 | 99 | 1018.9 |
| 20260502035013 | 56 | 34 | 2.0 | 6.0 | 0.00 | 3.40 | 3.40 | 99 | 1018.9 |
| 20260502034511 | 56 | 156 | 2.0 | 5.0 | 0.00 | 3.40 | 3.40 | 99 | 1018.8 |
| 20260502034009 | 56 | 335 | 2.0 | 5.0 | 0.00 | 3.40 | 3.40 | 99 | 1019.1 |
| 20260502033507 | 56 | 28 | 1.0 | 5.0 | 0.00 | 3.40 | 3.40 | 99 | 1018.6 |
| 20260502033004 | 56 | 30 | 1.0 | 6.0 | 0.02 | 3.40 | 3.40 | 99 | 1018.2 |
| 20260502032459 | 56 | 32 | 1.0 | 4.0 | 0.02 | 3.40 | 3.40 | 99 | 1018.1 |
| 20260502031956 | 56 | 155 | 0.0 | 6.0 | 0.00 | 3.40 | 3.40 | 99 | 1018.1 |
| 20260502031455 | 56 | 39 | 2.0 | 7.0 | 0.00 | 3.40 | 3.40 | 99 | 1018.0 |
| 20260502030952 | 56 | 180 | 1.0 | 7.0 | 0.05 | 3.40 | 3.40 | 99 | 1017.5 |
| 20260502030451 | 57 | 7 | 1.0 | 5.0 | 0.05 | 3.39 | 3.39 | 99 | 1017.2 |
| 20260502025948 | 57 | 326 | 0.0 | 2.0 | 0.07 | 3.39 | 3.39 | 99 | 1017.2 |
| 20260502025445 | 57 | 253 | 1.0 | 4.0 | 0.05 | 3.39 | 3.39 | 99 | 1017.4 |
| 20260502024943 | 57 | 64 | 1.0 | 5.0 | 0.02 | 3.38 | 3.38 | 99 | 1017.6 |
| 20260502024441 | 57 | 2 | 0.0 | 5.0 | 0.05 | 3.38 | 3.38 | 99 | 1017.7 |
| 20260502023939 | 57 | 24 | 1.0 | 7.0 | 0.05 | 3.37 | 3.37 | 99 | 1017.9 |
| 20260502023436 | 58 | 52 | 2.0 | 7.0 | 0.02 | 3.37 | 3.37 | 99 | 1017.7 |
| 20260502022933 | 58 | 24 | 0.0 | 4.0 | 0.02 | 3.37 | 3.37 | 99 | 1017.5 |
| 20260502022429 | 58 | 12 | 3.0 | 7.0 | 0.02 | 3.37 | 3.37 | 99 | 1017.8 |
| 20260502021926 | 58 | 4 | 0.0 | 9.0 | 0.02 | 3.36 | 3.36 | 99 | 1017.7 |
| 20260502021424 | 58 | 342 | 1.0 | 4.0 | 0.07 | 3.36 | 3.36 | 99 | 1017.9 |
| 20260502020921 | 58 | 40 | 2.0 | 5.0 | 0.07 | 3.36 | 3.36 | 99 | 1017.6 |
| 20260502020419 | 58 | 128 | 0.0 | 5.0 | 0.02 | 3.35 | 3.35 | 99 | 1017.6 |
| 20260502015915 | 58 | 20 | 2.0 | 4.0 | 0.02 | 3.35 | 3.35 | 99 | 1017.4 |
| 20260502015413 | 58 | 324 | 0.0 | 4.0 | 0.02 | 3.34 | 3.34 | 99 | 1017.4 |
| 20260502014909 | 58 | 8 | 3.0 | 4.0 | 0.07 | 3.34 | 3.34 | 99 | 1017.1 |
| 20260502014406 | 58 | 63 | 2.0 | 4.0 | 0.05 | 3.33 | 3.33 | 99 | 1017.1 |
| 20260502013903 | 58 | 118 | 1.0 | 5.0 | 0.07 | 3.33 | 3.33 | 99 | 1017.0 |
| 20260502013358 | 58 | 171 | 0.0 | 3.0 | 0.09 | 3.33 | 3.33 | 99 | 1016.7 |
| 20260502012855 | 58 | 50 | 0.0 | 3.0 | 0.09 | 3.32 | 3.32 | 99 | 1016.7 |
| 20260502012353 | 58 | 166 | 0.0 | 3.0 | 0.09 | 3.31 | 3.31 | 99 | 1016.5 |
| 20260502011850 | 59 | 19 | 2.0 | 5.0 | 0.05 | 3.30 | 3.30 | 99 | 1016.5 |
| 20260502011346 | 59 | 13 | 0.0 | 4.0 | 0.00 | 3.29 | 3.29 | 99 | 1016.2 |
| 20260502010843 | 58 | 11 | 0.0 | 5.0 | 0.00 | 3.29 | 3.29 | 99 | 1015.6 |
| 20260502010340 | 59 | 14 | 0.0 | 7.0 | 0.02 | 3.29 | 3.29 | 99 | 1015.2 |
| 20260502005837 | 59 | 61 | 1.0 | 3.0 | 0.05 | 3.29 | 3.29 | 99 | 1014.9 |
| 20260502005335 | 59 | 10 | 0.0 | 3.0 | 0.09 | 3.28 | 3.28 | 99 | 1014.7 |
| 20260502004832 | 59 | 5 | 0.0 | 2.0 | 0.17 | 3.28 | 3.28 | 99 | 1014.8 |
| 20260502004327 | 59 | 126 | 1.0 | 3.0 | 0.19 | 3.26 | 3.26 | 99 | 1015.0 |
| 20260502003826 | 59 | 230 | 0.0 | 5.0 | 0.33 | 3.24 | 3.24 | 99 | 1015.1 |
| 20260502003322 | 59 | 260 | 0.0 | 3.0 | 0.50 | 3.22 | 3.22 | 99 | 1015.3 |
| 20260502002819 | 59 | 1 | 1.0 | 8.0 | 0.50 | 3.18 | 3.18 | 99 | 1015.5 |
| 20260502002316 | 59 | 35 | 1.0 | 4.0 | 0.38 | 3.13 | 3.13 | 99 | 1015.7 |
| 20260502001813 | 59 | 66 | 1.0 | 3.0 | 0.57 | 3.09 | 3.09 | 99 | 1015.2 |
| 20260502001311 | 59 | 4 | 2.0 | 5.0 | 0.50 | 3.06 | 3.06 | 99 | 1015.1 |
| 20260502000808 | 59 | 105 | 2.0 | 6.0 | 0.07 | 2.99 | 2.99 | 99 | 1014.6 |
| 20260502000306 | 59 | 172 | 2.0 | 5.0 | 0.00 | 2.98 | 2.98 | 99 | 1014.6 |
| 20260501235802 | 59 | 208 | 2.0 | 5.0 | 0.00 | 2.98 | 2.98 | 99 | 1014.9 |
| 20260501235258 | 59 | 106 | 1.0 | 7.0 | 0.02 | 2.98 | 2.98 | 99 | 1014.7 |
| 20260501234753 | 59 | 106 | 3.0 | 8.0 | 0.02 | 2.98 | 2.98 | 99 | 1014.6 |
| 20260501234251 | 60 | 20 | 1.0 | 6.0 | 0.05 | 2.98 | 2.98 | 99 | 1014.8 |
| 20260501233749 | 60 | 16 | 0.0 | 3.0 | 0.12 | 2.97 | 2.97 | 99 | 1014.7 |
| 20260501233246 | 60 | 14 | 2.0 | 6.0 | 0.12 | 2.97 | 2.97 | 99 | 1014.2 |
| 20260501232742 | 60 | 109 | 1.0 | 5.0 | 0.02 | 2.95 | 2.95 | 99 | 1014.1 |
| 20260501232239 | 60 | 218 | 2.0 | 9.0 | 0.02 | 2.95 | 2.95 | 99 | 1014.0 |
| 20260501231737 | 60 | 93 | 1.0 | 5.0 | 0.07 | 2.95 | 2.95 | 99 | 1013.9 |
| 20260501231235 | 60 | 154 | 0.0 | 3.0 | 0.07 | 2.94 | 2.94 | 99 | 1013.8 |
| 20260501230733 | 60 | 340 | 0.0 | 5.0 | 0.00 | 2.93 | 2.93 | 99 | 1014.1 |
| 20260501230231 | 60 | 156 | 2.0 | 6.0 | 0.02 | 2.93 | 2.93 | 99 | 1014.3 |
| 20260501225723 | 60 | 251 | 2.0 | 5.0 | 0.02 | 2.93 | 2.93 | 99 | 1014.7 |
| 20260501225220 | 60 | 169 | 0.0 | 5.0 | 0.00 | 2.93 | 2.93 | 99 | 1014.6 |
| 20260501224716 | 60 | 239 | 0.0 | 5.0 | 0.00 | 2.93 | 2.93 | 99 | 1014.4 |
| 20260501224214 | 61 | 116 | 2.0 | 5.0 | 0.00 | 2.93 | 2.93 | 99 | 1014.4 |
| 20260501223709 | 61 | 219 | 2.0 | 4.0 | 0.02 | 2.93 | 2.93 | 99 | 1014.2 |
| 20260501223206 | 61 | 110 | 2.0 | 5.0 | 0.00 | 2.92 | 2.92 | 99 | 1013.9 |
| 20260501222702 | 61 | 337 | 3.0 | 5.0 | 0.02 | 2.92 | 2.92 | 99 | 1014.2 |
| 20260501222159 | 61 | 111 | 2.0 | 11.0 | 0.02 | 2.92 | 2.92 | 99 | 1014.2 |
| 20260501221656 | 61 | 120 | 0.0 | 6.0 | 0.02 | 2.92 | 2.92 | 99 | 1014.8 |
| 20260501221153 | 61 | 197 | 1.0 | 5.0 | 0.05 | 2.92 | 2.92 | 99 | 1015.1 |
| 20260501220651 | 61 | 41 | 0.0 | 3.0 | 0.07 | 2.92 | 2.92 | 99 | 1015.0 |
| 20260501220148 | 61 | 17 | 0.0 | 2.0 | 0.02 | 2.91 | 2.91 | 99 | 1014.9 |
| 20260501215645 | 61 | 119 | 0.0 | 2.0 | 0.02 | 2.91 | 2.91 | 99 | 1015.2 |
| 20260501215140 | 61 | 25 | 0.0 | 2.0 | 0.09 | 2.91 | 2.91 | 99 | 1015.1 |
| 20260501214635 | 61 | 209 | 0.0 | 3.0 | 0.12 | 2.90 | 2.90 | 99 | 1014.5 |
| 20260501214131 | 61 | 266 | 1.0 | 6.0 | 0.19 | 2.89 | 2.89 | 99 | 1014.5 |
| 20260501213628 | 61 | 220 | 6.0 | 6.0 | 0.24 | 2.88 | 2.88 | 99 | 1013.8 |
| 20260501213124 | 61 | 168 | 1.0 | 6.0 | 0.14 | 2.85 | 2.85 | 99 | 1013.4 |
| 20260501212621 | 61 | 123 | 2.0 | 6.0 | 0.26 | 2.84 | 2.84 | 99 | 1013.6 |
| 20260501212117 | 61 | 189 | 7.0 | 8.0 | 0.26 | 2.83 | 2.83 | 99 | 1013.6 |
| 20260501211614 | 61 | 106 | 3.0 | 5.0 | 0.19 | 2.79 | 2.79 | 99 | 1014.1 |
| 20260501211112 | 61 | 148 | 2.0 | 6.0 | 0.42 | 2.78 | 2.78 | 99 | 1014.2 |
| 20260501210609 | 62 | 136 | 2.0 | 4.0 | 0.61 | 2.75 | 2.75 | 99 | 1013.9 |
| 20260501210105 | 62 | 184 | 2.0 | 4.0 | 0.47 | 2.69 | 2.69 | 99 | 1014.2 |
| 20260501205601 | 62 | 214 | 0.0 | 3.0 | 0.42 | 2.63 | 2.63 | 99 | 1014.2 |
| 20260501205059 | 62 | 43 | 2.0 | 4.0 | 0.66 | 2.61 | 2.61 | 99 | 1014.4 |
| 20260501204555 | 62 | 269 | 0.0 | 4.0 | 0.24 | 2.53 | 2.53 | 99 | 1013.9 |
| 20260501204051 | 62 | 138 | 2.0 | 5.0 | 0.09 | 2.50 | 2.50 | 99 | 1013.3 |
| 20260501203548 | 62 | 102 | 2.0 | 11.0 | 0.09 | 2.48 | 2.48 | 99 | 1013.5 |